Time,TemperatureF,DewpointF,PressureIn,WindDirection,WindDirectionDegrees,WindSpeedMPH,WindSpeedGustMPH,Humidity,HourlyPrecipIn,Conditions,Clouds,dailyrainin,SoftwareType,DateUTC
2013-01-18 00:00:00,30.0,0.9,29.88,NNW,343,0.0,0.0,28,0.00,,---,0.00,VWS V12.07,2013-01-18 05:00:00,
2013-01-18 00:04:00,30.0,0.9,29.88,NE,56,2.2,4.0,28,0.00,,---,0.00,VWS V12.07,2013-01-18 05:04:00,
2013-01-18 00:11:00,29.8,-1.7,29.88,NNE,18,0.0,4.5,25,0.00,,---,0.00,VWS V12.07,2013-01-18 05:11:00,
2013-01-18 00:16:00,29.8,-1.7,29.88,NW,318,2.2,2.7,25,0.00,,---,0.00,VWS V12.07,2013-01-18 05:16:00,
2013-01-18 00:22:00,29.7,-1.8,29.88,NW,317,0.0,4.9,25,0.00,,---,0.00,VWS V12.07,2013-01-18 05:22:00,
2013-01-18 00:29:00,29.7,-1.8,29.88,North,4,0.0,4.9,25,0.00,,---,0.00,VWS V12.07,2013-01-18 05:29:00,
2013-01-18 00:36:00,29.5,-2.0,29.88,NNW,345,0.0,6.7,25,0.00,,---,0.00,VWS V12.07,2013-01-18 05:36:00,
2013-01-18 00:44:00,29.5,-2.0,29.88,West,271,0.0,6.7,25,0.00,,---,0.00,VWS V12.07,2013-01-18 05:44:00,
2013-01-18 00:50:00,29.5,-2.0,29.91,NNW,333,0.0,2.2,25,0.00,,---,0.00,VWS V12.07,2013-01-18 05:50:00,
2013-01-18 00:58:00,29.5,-2.0,29.91,NNW,327,2.2,2.2,25,0.00,,---,0.00,VWS V12.07,2013-01-18 05:58:00,
2013-01-18 01:04:00,29.5,-2.0,29.91,South,182,0.0,2.7,25,0.00,,---,0.00,VWS V12.07,2013-01-18 06:04:00,
2013-01-18 01:09:00,29.3,-2.2,29.88,WNW,302,4.0,6.7,25,0.00,,---,0.00,VWS V12.07,2013-01-18 06:09:00,
2013-01-18 01:16:00,29.3,-2.2,29.88,NNW,329,0.0,0.0,25,0.00,,---,0.00,VWS V12.07,2013-01-18 06:16:00,
2013-01-18 01:25:00,29.3,-2.2,29.88,NNE,26,0.0,2.2,25,0.00,,---,0.00,VWS V12.07,2013-01-18 06:25:00,
2013-01-18 01:31:00,29.3,-2.2,29.88,ENE,62,0.0,0.0,25,0.00,,---,0.00,VWS V12.07,2013-01-18 06:31:00,
2013-01-18 01:39:00,29.1,-2.3,29.88,NNE,14,0.0,5.4,25,0.00,,---,0.00,VWS V12.07,2013-01-18 06:39:00,
2013-01-18 01:45:00,28.9,-2.5,29.88,ENE,78,2.2,5.4,25,0.00,,---,0.00,VWS V12.07,2013-01-18 06:45:00,
2013-01-18 01:53:00,28.8,-2.6,29.88,NE,36,0.0,8.1,25,0.00,,---,0.00,VWS V12.07,2013-01-18 06:53:00,
2013-01-18 02:00:00,28.8,-2.6,29.88,NNE,33,0.0,0.0,25,0.00,,---,0.00,VWS V12.07,2013-01-18 07:00:00,
2013-01-18 02:06:00,28.8,-2.6,29.91,NNE,26,0.0,4.5,25,0.00,,---,0.00,VWS V12.07,2013-01-18 07:06:00,
2013-01-18 02:13:00,28.6,-2.8,29.91,West,277,0.0,4.5,25,0.00,,---,0.00,VWS V12.07,2013-01-18 07:13:00,
2013-01-18 02:18:00,28.6,-2.8,29.91,SSW,199,0.0,4.9,25,0.00,,---,0.00,VWS V12.07,2013-01-18 07:18:00,
2013-01-18 02:24:00,28.4,-2.1,29.91,ENE,66,0.0,4.9,26,0.00,,---,0.00,VWS V12.07,2013-01-18 07:24:00,
2013-01-18 02:30:00,28.4,-2.1,29.91,WNW,302,3.1,4.9,26,0.00,,---,0.00,VWS V12.07,2013-01-18 07:30:00,
2013-01-18 02:36:00,28.2,-2.2,29.91,North,0,0.0,4.5,26,0.00,,---,0.00,VWS V12.07,2013-01-18 07:36:00,
2013-01-18 02:42:00,28.2,-2.2,29.91,NE,53,0.0,4.5,26,0.00,,---,0.00,VWS V12.07,2013-01-18 07:42:00,
2013-01-18 02:50:00,28.0,-2.4,29.91,NNE,16,0.0,4.0,26,0.00,,---,0.00,VWS V12.07,2013-01-18 07:50:00,
2013-01-18 02:56:00,28.0,-2.4,29.91,South,190,3.1,4.0,26,0.00,,---,0.00,VWS V12.07,2013-01-18 07:56:00,
2013-01-18 03:03:00,27.9,-2.6,29.91,NNE,31,3.6,4.0,26,0.00,,---,0.00,VWS V12.07,2013-01-18 08:03:00,
2013-01-18 03:09:00,27.9,-2.6,29.91,WSW,256,0.0,4.0,26,0.00,,---,0.00,VWS V12.07,2013-01-18 08:09:00,
2013-01-18 03:16:00,27.5,-2.9,29.91,NE,54,2.7,5.4,26,0.00,,---,0.00,VWS V12.07,2013-01-18 08:16:00,
2013-01-18 03:22:00,27.1,-3.2,29.88,ESE,107,0.0,5.4,26,0.00,,---,0.00,VWS V12.07,2013-01-18 08:22:00,
2013-01-18 03:29:00,27.0,-5.9,29.88,SW,235,0.0,6.3,23,0.00,,---,0.00,VWS V12.07,2013-01-18 08:29:00,
2013-01-18 03:36:00,26.8,-6.0,29.88,ENE,59,0.0,5.8,23,0.00,,---,0.00,VWS V12.07,2013-01-18 08:36:00,
2013-01-18 03:43:00,26.2,-5.6,29.88,NNE,24,0.0,6.3,24,0.00,,---,0.00,VWS V12.07,2013-01-18 08:43:00,
2013-01-18 03:50:00,25.9,-5.9,29.91,SSE,157,3.1,6.3,24,0.00,,---,0.00,VWS V12.07,2013-01-18 08:50:00,
2013-01-18 03:57:00,25.5,-6.2,29.91,WSW,246,6.3,8.7,24,0.00,,---,0.00,VWS V12.07,2013-01-18 08:57:00,
2013-01-18 04:05:00,25.0,-6.7,29.94,NE,46,0.0,6.3,24,0.00,,---,0.00,VWS V12.07,2013-01-18 09:05:00,
2013-01-18 04:14:00,24.4,-7.2,29.94,NE,46,0.0,6.3,24,0.00,,---,0.00,VWS V12.07,2013-01-18 09:14:00,
2013-01-18 04:21:00,24.3,-7.3,29.94,WSW,240,4.0,4.0,24,0.00,,---,0.00,VWS V12.07,2013-01-18 09:21:00,
2013-01-18 04:28:00,24.1,-7.5,29.94,North,357,0.0,4.0,24,0.00,,---,0.00,VWS V12.07,2013-01-18 09:28:00,
2013-01-18 04:35:00,24.1,-7.5,29.91,NNE,32,0.0,5.8,24,0.00,,---,0.00,VWS V12.07,2013-01-18 09:35:00,
2013-01-18 04:42:00,23.7,-7.8,29.91,NNE,18,0.0,5.8,24,0.00,,---,0.00,VWS V12.07,2013-01-18 09:42:00,
2013-01-18 04:48:00,23.7,-7.8,29.91,North,357,0.0,4.9,24,0.00,,---,0.00,VWS V12.07,2013-01-18 09:48:00,
2013-01-18 04:55:00,23.5,-7.9,29.94,West,262,0.0,4.9,24,0.00,,---,0.00,VWS V12.07,2013-01-18 09:55:00,
2013-01-18 05:03:00,23.4,-8.1,29.94,NNE,15,0.0,5.4,24,0.00,,---,0.00,VWS V12.07,2013-01-18 10:03:00,
2013-01-18 05:10:00,23.0,-7.6,29.97,North,357,0.0,5.4,25,0.00,,---,0.00,VWS V12.07,2013-01-18 10:10:00,
2013-01-18 05:16:00,22.8,-7.7,29.97,East,82,2.7,4.0,25,0.00,,---,0.00,VWS V12.07,2013-01-18 10:16:00,
2013-01-18 05:24:00,22.5,-8.0,29.94,NNE,25,0.0,7.2,25,0.00,,---,0.00,VWS V12.07,2013-01-18 10:24:00,
2013-01-18 05:31:00,22.1,-8.3,29.94,North,6,4.0,7.2,25,0.00,,---,0.00,VWS V12.07,2013-01-18 10:31:00,
2013-01-18 05:37:00,21.9,-8.5,29.97,West,267,0.0,7.2,25,0.00,,---,0.00,VWS V12.07,2013-01-18 10:37:00,
2013-01-18 05:44:00,21.4,-9.0,29.97,NE,44,0.0,7.2,25,0.00,,---,0.00,VWS V12.07,2013-01-18 10:44:00,
2013-01-18 05:51:00,21.2,-9.1,30.00,North,9,0.0,4.0,25,0.00,,---,0.00,VWS V12.07,2013-01-18 10:51:00,
2013-01-18 05:58:00,20.7,-9.6,30.00,North,8,3.6,7.6,25,0.00,,---,0.00,VWS V12.07,2013-01-18 10:58:00,
2013-01-18 06:05:00,20.5,-9.7,30.00,NNW,338,2.7,3.6,25,0.00,,---,0.00,VWS V12.07,2013-01-18 11:05:00,
2013-01-18 06:13:00,20.3,-9.9,30.00,NNW,330,0.0,3.6,25,0.00,,---,0.00,VWS V12.07,2013-01-18 11:13:00,
2013-01-18 06:19:00,20.3,-9.9,30.00,North,3,0.0,4.0,25,0.00,,---,0.00,VWS V12.07,2013-01-18 11:19:00,
2013-01-18 06:26:00,20.1,-10.1,30.03,West,279,4.5,5.4,25,0.00,,---,0.00,VWS V12.07,2013-01-18 11:26:00,
2013-01-18 06:32:00,19.9,-10.2,30.03,NNW,330,0.0,2.7,25,0.00,,---,0.00,VWS V12.07,2013-01-18 11:32:00,
2013-01-18 06:40:00,19.8,-10.4,30.03,NE,52,0.0,4.5,25,0.00,,---,0.00,VWS V12.07,2013-01-18 11:40:00,
2013-01-18 06:46:00,19.6,-10.5,30.03,NE,56,0.0,3.6,25,0.00,,---,0.00,VWS V12.07,2013-01-18 11:46:00,
2013-01-18 06:54:00,19.2,-10.8,30.03,WSW,254,3.1,6.7,25,0.00,,---,0.00,VWS V12.07,2013-01-18 11:54:00,
2013-01-18 07:02:00,19.0,-11.0,30.03,NNW,329,0.0,5.8,25,0.00,,---,0.00,VWS V12.07,2013-01-18 12:02:00,
2013-01-18 07:07:00,19.0,-11.0,30.06,WSW,244,0.0,5.8,25,0.00,,---,0.00,VWS V12.07,2013-01-18 12:07:00,
2013-01-18 07:14:00,18.9,-11.1,30.06,NNE,28,3.6,5.8,25,0.00,,---,0.00,VWS V12.07,2013-01-18 12:14:00,
2013-01-18 07:21:00,18.7,-11.3,30.06,NW,316,4.0,4.0,25,0.00,,---,0.00,VWS V12.07,2013-01-18 12:21:00,
2013-01-18 07:28:00,18.7,-11.3,30.06,West,277,0.0,5.4,25,0.00,,---,0.00,VWS V12.07,2013-01-18 12:28:00,
2013-01-18 07:34:00,18.5,-11.4,30.09,NNE,17,0.0,2.7,25,0.00,,---,0.00,VWS V12.07,2013-01-18 12:34:00,
2013-01-18 07:42:00,18.5,-11.4,30.09,NW,306,4.0,5.8,25,0.00,,---,0.00,VWS V12.07,2013-01-18 12:42:00,
2013-01-18 07:48:00,18.5,-11.4,30.09,North,6,0.0,0.0,25,0.00,,---,0.00,VWS V12.07,2013-01-18 12:48:00,
2013-01-18 07:56:00,18.5,-11.4,30.09,WSW,244,0.0,7.6,25,0.00,,---,0.00,VWS V12.07,2013-01-18 12:56:00,
2013-01-18 08:02:00,18.5,-11.4,30.09,North,11,3.6,8.1,25,0.00,,---,0.00,VWS V12.07,2013-01-18 13:02:00,
2013-01-18 08:10:00,18.3,-11.6,30.09,SW,229,0.0,8.1,25,0.00,,---,0.00,VWS V12.07,2013-01-18 13:10:00,
2013-01-18 08:16:00,18.5,-11.4,30.09,NE,42,0.0,2.7,25,0.00,,---,0.00,VWS V12.07,2013-01-18 13:16:00,
2013-01-18 08:23:00,18.5,-11.4,30.12,North,357,2.2,10.1,25,0.00,,---,0.00,VWS V12.07,2013-01-18 13:23:00,
2013-01-18 08:30:00,18.5,-11.4,30.12,North,11,4.0,4.0,25,0.00,,---,0.00,VWS V12.07,2013-01-18 13:30:00,
2013-01-18 08:37:00,18.5,-11.4,30.12,SW,229,3.6,8.7,25,0.00,,---,0.00,VWS V12.07,2013-01-18 13:37:00,
2013-01-18 08:44:00,18.5,-11.4,30.12,SE,124,0.0,8.7,25,0.00,,---,0.00,VWS V12.07,2013-01-18 13:44:00,
2013-01-18 08:50:00,18.5,-11.4,30.12,NNE,13,0.0,6.7,25,0.00,,---,0.00,VWS V12.07,2013-01-18 13:50:00,
2013-01-18 08:58:00,18.7,-11.3,30.12,WSW,237,2.2,6.7,25,0.00,,---,0.00,VWS V12.07,2013-01-18 13:58:00,
2013-01-18 09:04:00,18.9,-11.1,30.15,SW,220,0.0,5.8,25,0.00,,---,0.00,VWS V12.07,2013-01-18 14:04:00,
2013-01-18 09:12:00,19.0,-11.0,30.15,North,353,0.0,7.2,25,0.00,,---,0.00,VWS V12.07,2013-01-18 14:12:00,
2013-01-18 09:19:00,19.2,-10.8,30.15,NNE,24,0.0,6.3,25,0.00,,---,0.00,VWS V12.07,2013-01-18 14:19:00,
2013-01-18 09:26:00,19.2,-10.8,30.15,NNW,346,4.0,7.2,25,0.00,,---,0.00,VWS V12.07,2013-01-18 14:26:00,
2013-01-18 09:33:00,19.4,-10.7,30.15,NNE,19,4.9,4.9,25,0.00,,---,0.00,VWS V12.07,2013-01-18 14:33:00,
2013-01-18 09:40:00,20.3,-9.9,30.15,West,265,3.6,7.2,25,0.00,,---,0.00,VWS V12.07,2013-01-18 14:40:00,
2013-01-18 09:45:00,20.8,-9.4,30.15,East,81,0.0,7.2,25,0.00,,---,0.00,VWS V12.07,2013-01-18 14:45:00,
2013-01-18 09:52:00,21.4,-9.0,30.15,ENE,62,0.0,7.2,25,0.00,,---,0.00,VWS V12.07,2013-01-18 14:52:00,
2013-01-18 09:58:00,22.3,-8.2,30.15,SW,216,3.6,7.2,25,0.00,,---,0.00,VWS V12.07,2013-01-18 14:58:00,
2013-01-18 10:06:00,22.8,-7.7,30.15,North,10,0.0,8.3,25,0.00,,---,0.00,VWS V12.07,2013-01-18 15:06:00,
2013-01-18 10:13:00,22.5,-8.0,30.15,West,265,2.7,14.1,25,0.00,,---,0.00,VWS V12.07,2013-01-18 15:13:00,
2013-01-18 10:20:00,22.8,-7.7,30.15,WNW,284,3.1,8.3,25,0.00,,---,0.00,VWS V12.07,2013-01-18 15:20:00,
2013-01-18 10:27:00,23.5,-7.9,30.15,ENE,71,0.0,8.7,24,0.00,,---,0.00,VWS V12.07,2013-01-18 15:27:00,
2013-01-18 10:34:00,23.5,-7.9,30.15,NE,39,0.0,6.3,24,0.00,,---,0.00,VWS V12.07,2013-01-18 15:34:00,
2013-01-18 10:42:00,24.1,-7.5,30.18,NW,311,3.1,6.3,24,0.00,,---,0.00,VWS V12.07,2013-01-18 15:42:00,
2013-01-18 10:48:00,23.4,-8.1,30.18,NNE,17,4.0,7.6,24,0.00,,---,0.00,VWS V12.07,2013-01-18 15:48:00,
2013-01-18 10:56:00,23.4,-8.1,30.18,NNE,29,3.6,8.3,24,0.00,,---,0.00,VWS V12.07,2013-01-18 15:56:00,
2013-01-18 11:04:00,23.9,-7.6,30.18,NNE,15,0.0,4.0,24,0.00,,---,0.00,VWS V12.07,2013-01-18 16:04:00,
2013-01-18 11:09:00,24.4,-7.2,30.15,ENE,64,4.9,4.9,24,0.00,,---,0.00,VWS V12.07,2013-01-18 16:09:00,
2013-01-18 11:16:00,23.9,-7.6,30.15,NNW,329,3.6,9.6,24,0.00,,---,0.00,VWS V12.07,2013-01-18 16:16:00,
2013-01-18 11:24:00,23.9,-7.6,30.15,WSW,240,4.0,9.6,24,0.00,,---,0.00,VWS V12.07,2013-01-18 16:24:00,
2013-01-18 11:31:00,23.9,-7.6,30.15,SW,220,4.9,10.5,24,0.00,,---,0.00,VWS V12.07,2013-01-18 16:31:00,
2013-01-18 11:38:00,23.9,-7.6,30.15,WNW,297,2.7,10.5,24,0.00,,---,0.00,VWS V12.07,2013-01-18 16:38:00,
2013-01-18 11:46:00,23.9,-7.6,30.15,SE,125,0.0,2.2,24,0.00,,---,0.00,VWS V12.07,2013-01-18 16:46:00,
2013-01-18 11:52:00,24.1,-7.5,30.15,WSW,251,4.0,10.1,24,0.00,,---,0.00,VWS V12.07,2013-01-18 16:52:00,
2013-01-18 12:00:00,23.9,-7.6,30.15,NW,321,6.3,6.3,24,0.00,,---,0.00,VWS V12.07,2013-01-18 17:00:00,
2013-01-18 12:08:00,23.7,-7.8,30.15,East,79,3.1,8.7,24,0.00,,---,0.00,VWS V12.07,2013-01-18 17:08:00,
2013-01-18 12:15:00,23.9,-7.6,30.15,West,275,0.0,5.8,24,0.00,,---,0.00,VWS V12.07,2013-01-18 17:15:00,
2013-01-18 12:22:00,24.1,-7.5,30.15,SSW,199,3.1,6.3,24,0.00,,---,0.00,VWS V12.07,2013-01-18 17:22:00,
2013-01-18 12:29:00,24.4,-7.2,30.15,ENE,73,0.0,7.2,24,0.00,,---,0.00,VWS V12.07,2013-01-18 17:29:00,
2013-01-18 12:37:00,24.4,-7.2,30.15,WSW,246,4.0,9.2,24,0.00,,---,0.00,VWS V12.07,2013-01-18 17:37:00,
2013-01-18 12:43:00,24.4,-7.2,30.15,West,277,2.2,9.2,24,0.00,,---,0.00,VWS V12.07,2013-01-18 17:43:00,
2013-01-18 12:51:00,24.1,-7.5,30.15,SW,227,4.0,8.3,24,0.00,,---,0.00,VWS V12.07,2013-01-18 17:51:00,
2013-01-18 12:57:00,24.1,-7.5,30.15,WSW,256,2.7,8.3,24,0.00,,---,0.00,VWS V12.07,2013-01-18 17:57:00,
2013-01-18 13:04:00,24.3,-7.3,30.15,NNW,346,5.8,13.6,24,0.00,,---,0.00,VWS V12.07,2013-01-18 18:04:00,
2013-01-18 13:10:00,24.4,-7.2,30.15,SW,236,2.2,13.6,24,0.00,,---,0.00,VWS V12.07,2013-01-18 18:10:00,
2013-01-18 13:17:00,24.4,-7.2,30.15,NW,306,0.0,6.3,24,0.00,,---,0.00,VWS V12.07,2013-01-18 18:17:00,
2013-01-18 13:24:00,24.6,-7.0,30.15,SW,234,0.0,8.1,24,0.00,,---,0.00,VWS V12.07,2013-01-18 18:24:00,
2013-01-18 13:31:00,24.6,-7.0,30.15,WSW,255,0.0,4.9,24,0.00,,---,0.00,VWS V12.07,2013-01-18 18:31:00,
2013-01-18 13:38:00,24.6,-7.0,30.18,WSW,257,7.6,7.6,24,0.00,,---,0.00,VWS V12.07,2013-01-18 18:38:00,
2013-01-18 13:46:00,24.8,-6.9,30.18,WNW,285,6.3,8.3,24,0.00,,---,0.00,VWS V12.07,2013-01-18 18:46:00,
2013-01-18 13:52:00,25.0,-6.7,30.18,WNW,302,4.9,8.3,24,0.00,,---,0.00,VWS V12.07,2013-01-18 18:52:00,
2013-01-18 13:58:00,24.8,-6.9,30.18,NE,38,3.6,8.3,24,0.00,,---,0.00,VWS V12.07,2013-01-18 18:58:00,
2013-01-18 14:05:00,25.2,-6.6,30.18,NNW,345,5.4,8.3,24,0.00,,---,0.00,VWS V12.07,2013-01-18 19:05:00,
2013-01-18 14:12:00,25.3,-6.4,30.18,WSW,253,2.7,8.7,24,0.00,,---,0.00,VWS V12.07,2013-01-18 19:12:00,
2013-01-18 14:19:00,25.5,-6.2,30.18,WSW,246,3.6,6.3,24,0.00,,---,0.00,VWS V12.07,2013-01-18 19:19:00,
2013-01-18 14:25:00,25.9,-5.9,30.18,WNW,285,4.0,6.7,24,0.00,,---,0.00,VWS V12.07,2013-01-18 19:25:00,
2013-01-18 14:32:00,26.1,-5.8,30.18,WSW,251,6.3,6.3,24,0.00,,---,0.00,VWS V12.07,2013-01-18 19:32:00,
2013-01-18 14:38:00,26.6,-5.3,30.18,WSW,249,4.0,10.1,24,0.00,,---,0.00,VWS V12.07,2013-01-18 19:38:00,
2013-01-18 14:46:00,27.0,-5.9,30.18,WSW,242,3.6,12.3,23,0.00,,---,0.00,VWS V12.07,2013-01-18 19:46:00,
2013-01-18 14:52:00,27.0,-5.9,30.18,SW,233,3.6,12.3,23,0.00,,---,0.00,VWS V12.07,2013-01-18 19:52:00,
2013-01-18 14:57:00,27.0,-5.9,30.18,SW,229,0.0,12.3,23,0.00,,---,0.00,VWS V12.07,2013-01-18 19:57:00,
2013-01-18 15:04:00,27.0,-5.9,30.18,SW,216,0.0,8.1,23,0.00,,---,0.00,VWS V12.07,2013-01-18 20:04:00,
2013-01-18 15:11:00,27.0,-5.9,30.18,WSW,253,3.6,10.5,23,0.00,,---,0.00,VWS V12.07,2013-01-18 20:11:00,
2013-01-18 15:17:00,26.8,-6.0,30.18,NNW,327,0.0,6.3,23,0.00,,---,0.00,VWS V12.07,2013-01-18 20:17:00,
2013-01-18 15:24:00,26.6,-5.3,30.18,NW,305,3.6,8.7,24,0.00,,---,0.00,VWS V12.07,2013-01-18 20:24:00,
2013-01-18 15:30:00,26.4,-5.5,30.18,SE,130,3.1,8.7,24,0.00,,---,0.00,VWS V12.07,2013-01-18 20:30:00,
2013-01-18 15:37:00,26.1,-5.8,30.18,WNW,288,0.0,5.4,24,0.00,,---,0.00,VWS V12.07,2013-01-18 20:37:00,
2013-01-18 15:44:00,25.7,-6.1,30.18,NNE,17,0.0,5.8,24,0.00,,---,0.00,VWS V12.07,2013-01-18 20:44:00,
2013-01-18 15:51:00,25.3,-6.4,30.21,NNE,27,0.0,4.9,24,0.00,,---,0.00,VWS V12.07,2013-01-18 20:51:00,
2013-01-18 15:58:00,25.2,-6.6,30.21,South,178,0.0,9.2,24,0.00,,---,0.00,VWS V12.07,2013-01-18 20:58:00,
2013-01-18 16:05:00,25.0,-6.7,30.18,WNW,294,0.0,6.3,24,0.00,,---,0.00,VWS V12.07,2013-01-18 21:05:00,
2013-01-18 16:13:00,24.8,-6.9,30.18,WNW,300,3.1,6.7,24,0.00,,---,0.00,VWS V12.07,2013-01-18 21:13:00,
2013-01-18 16:22:00,24.4,-7.2,30.21,ENE,61,0.0,4.0,24,0.00,,---,0.00,VWS V12.07,2013-01-18 21:22:00,
2013-01-18 16:27:00,24.4,-7.2,30.21,WSW,257,0.0,4.0,24,0.00,,---,0.00,VWS V12.07,2013-01-18 21:27:00,
2013-01-18 16:33:00,24.4,-7.2,30.21,WSW,247,0.0,0.0,24,0.00,,---,0.00,VWS V12.07,2013-01-18 21:33:00,
2013-01-18 16:40:00,24.3,-7.3,30.21,WNW,286,0.0,0.0,24,0.00,,---,0.00,VWS V12.07,2013-01-18 21:40:00,
2013-01-18 16:47:00,24.1,-7.5,30.21,WSW,241,0.0,0.0,24,0.00,,---,0.00,VWS V12.07,2013-01-18 21:47:00,
2013-01-18 16:53:00,23.9,-7.6,30.21,West,261,3.6,3.6,24,0.00,,---,0.00,VWS V12.07,2013-01-18 21:53:00,
2013-01-18 16:59:00,23.7,-7.8,30.21,WNW,294,5.4,5.8,24,0.00,,---,0.00,VWS V12.07,2013-01-18 21:59:00,
2013-01-18 17:06:00,23.7,-7.8,30.21,SW,223,3.1,5.8,24,0.00,,---,0.00,VWS V12.07,2013-01-18 22:06:00,
2013-01-18 17:14:00,23.5,-7.9,30.21,WSW,256,5.4,10.1,24,0.00,,---,0.00,VWS V12.07,2013-01-18 22:14:00,
2013-01-18 17:20:00,23.5,-7.9,30.24,WSW,251,7.6,8.3,24,0.00,,---,0.00,VWS V12.07,2013-01-18 22:20:00,
2013-01-18 17:27:00,23.4,-8.1,30.24,WSW,249,2.7,8.3,24,0.00,,---,0.00,VWS V12.07,2013-01-18 22:27:00,
2013-01-18 17:34:00,23.2,-8.2,30.24,West,275,0.0,5.4,24,0.00,,---,0.00,VWS V12.07,2013-01-18 22:34:00,
2013-01-18 17:41:00,23.0,-7.6,30.24,WNW,293,0.0,5.4,25,0.00,,---,0.00,VWS V12.07,2013-01-18 22:41:00,
2013-01-18 17:47:00,22.8,-7.7,30.24,WNW,294,0.0,4.9,25,0.00,,---,0.00,VWS V12.07,2013-01-18 22:47:00,
2013-01-18 17:55:00,22.8,-7.7,30.24,WNW,294,0.0,4.9,25,0.00,,---,0.00,VWS V12.07,2013-01-18 22:55:00,
2013-01-18 18:01:00,22.6,-7.9,30.24,WNW,294,0.0,0.0,25,0.00,,---,0.00,VWS V12.07,2013-01-18 23:01:00,
2013-01-18 18:09:00,22.6,-7.9,30.24,WNW,294,0.0,0.0,25,0.00,,---,0.00,VWS V12.07,2013-01-18 23:09:00,
2013-01-18 18:16:00,22.5,-8.0,30.24,WNW,294,0.0,0.0,25,0.00,,---,0.00,VWS V12.07,2013-01-18 23:16:00,
2013-01-18 18:23:00,22.3,-8.2,30.24,WNW,294,0.0,0.0,25,0.00,,---,0.00,VWS V12.07,2013-01-18 23:23:00,
2013-01-18 18:30:00,22.1,-8.3,30.24,WNW,294,0.0,0.0,25,0.00,,---,0.00,VWS V12.07,2013-01-18 23:30:00,
2013-01-18 18:38:00,22.1,-8.3,30.24,WNW,294,0.0,0.0,25,0.00,,---,0.00,VWS V12.07,2013-01-18 23:38:00,
2013-01-18 18:43:00,22.1,-8.3,30.24,WNW,294,0.0,2.2,25,0.00,,---,0.00,VWS V12.07,2013-01-18 23:43:00,
2013-01-18 18:51:00,22.1,-8.3,30.27,WNW,294,0.0,0.0,25,0.00,,---,0.00,VWS V12.07,2013-01-18 23:51:00,
2013-01-18 18:57:00,22.3,-8.2,30.27,WNW,294,0.0,0.0,25,0.00,,---,0.00,VWS V12.07,2013-01-18 23:57:00,
2013-01-18 19:04:00,22.3,-8.2,30.27,WSW,252,0.0,4.0,25,0.00,,---,0.00,VWS V12.07,2013-01-19 00:04:00,
2013-01-18 19:09:00,22.3,-8.2,30.27,WSW,258,2.2,5.8,25,0.00,,---,0.00,VWS V12.07,2013-01-19 00:09:00,
2013-01-18 19:18:00,22.3,-8.2,30.27,WSW,251,3.1,5.4,25,0.00,,---,0.00,VWS V12.07,2013-01-19 00:18:00,
2013-01-18 19:24:00,22.3,-8.2,30.27,WSW,251,0.0,5.4,25,0.00,,---,0.00,VWS V12.07,2013-01-19 00:24:00,
2013-01-18 19:31:00,22.5,-8.0,30.27,WSW,251,0.0,0.0,25,0.00,,---,0.00,VWS V12.07,2013-01-19 00:31:00,
2013-01-18 19:38:00,22.5,-8.0,30.27,WSW,253,0.0,4.0,25,0.00,,---,0.00,VWS V12.07,2013-01-19 00:38:00,
2013-01-18 19:45:00,22.5,-8.0,30.27,West,271,2.7,5.4,25,0.00,,---,0.00,VWS V12.07,2013-01-19 00:45:00,
2013-01-18 19:52:00,22.5,-8.0,30.27,WSW,242,0.0,6.3,25,0.00,,---,0.00,VWS V12.07,2013-01-19 00:52:00,
2013-01-18 19:59:00,22.3,-8.2,30.27,WSW,242,2.7,2.7,25,0.00,,---,0.00,VWS V12.07,2013-01-19 00:59:00,
2013-01-18 20:07:00,22.3,-8.2,30.27,WSW,243,0.0,3.6,25,0.00,,---,0.00,VWS V12.07,2013-01-19 01:07:00,
2013-01-18 20:13:00,22.3,-8.2,30.27,WSW,247,0.0,4.0,25,0.00,,---,0.00,VWS V12.07,2013-01-19 01:13:00,
2013-01-18 20:19:00,22.5,-8.0,30.27,West,260,0.0,3.1,25,0.00,,---,0.00,VWS V12.07,2013-01-19 01:19:00,
2013-01-18 20:26:00,22.5,-8.0,30.27,SW,236,0.0,5.8,25,0.00,,---,0.00,VWS V12.07,2013-01-19 01:26:00,
2013-01-18 20:33:00,22.5,-8.0,30.27,WSW,240,0.0,0.0,25,0.00,,---,0.00,VWS V12.07,2013-01-19 01:33:00,
2013-01-18 20:40:00,22.5,-8.0,30.27,WSW,237,0.0,0.0,25,0.00,,---,0.00,VWS V12.07,2013-01-19 01:40:00,
2013-01-18 20:46:00,22.5,-8.0,30.27,WSW,253,3.6,3.6,25,0.00,,---,0.00,VWS V12.07,2013-01-19 01:46:00,
2013-01-18 20:54:00,22.5,-8.0,30.27,West,262,0.0,5.8,25,0.00,,---,0.00,VWS V12.07,2013-01-19 01:54:00,
2013-01-18 20:59:00,22.5,-8.0,30.27,SW,230,0.0,0.0,25,0.00,,---,0.00,VWS V12.07,2013-01-19 01:59:00,
2013-01-18 21:07:00,22.5,-8.0,30.27,WSW,243,0.0,4.0,25,0.00,,---,0.00,VWS V12.07,2013-01-19 02:07:00,
2013-01-18 21:13:00,22.5,-8.0,30.27,West,279,0.0,4.9,25,0.00,,---,0.00,VWS V12.07,2013-01-19 02:13:00,
2013-01-18 21:21:00,22.5,-8.0,30.27,SW,222,2.7,3.6,25,0.00,,---,0.00,VWS V12.07,2013-01-19 02:21:00,
2013-01-18 21:27:00,22.3,-8.2,30.27,SW,227,0.0,4.0,25,0.00,,---,0.00,VWS V12.07,2013-01-19 02:27:00,
2013-01-18 21:35:00,22.3,-8.2,30.27,WSW,245,0.0,3.6,25,0.00,,---,0.00,VWS V12.07,2013-01-19 02:35:00,
2013-01-18 21:41:00,22.3,-8.2,30.27,West,263,0.0,3.6,25,0.00,,---,0.00,VWS V12.07,2013-01-19 02:41:00,
2013-01-18 21:49:00,22.3,-8.2,30.27,SSW,206,0.0,5.8,25,0.00,,---,0.00,VWS V12.07,2013-01-19 02:49:00,
2013-01-18 21:54:00,22.3,-8.2,30.24,West,267,0.0,6.3,25,0.00,,---,0.00,VWS V12.07,2013-01-19 02:54:00,
2013-01-18 22:02:00,22.3,-8.2,30.24,West,263,3.6,6.3,25,0.00,,---,0.00,VWS V12.07,2013-01-19 03:02:00,
2013-01-18 22:08:00,22.3,-8.2,30.27,WSW,249,2.2,6.3,25,0.00,,---,0.00,VWS V12.07,2013-01-19 03:08:00,
2013-01-18 22:16:00,22.1,-8.3,30.27,SW,236,0.0,3.1,25,0.00,,---,0.00,VWS V12.07,2013-01-19 03:16:00,
2013-01-18 22:21:00,22.1,-8.3,30.24,West,280,4.0,5.8,25,0.00,,---,0.00,VWS V12.07,2013-01-19 03:21:00,
2013-01-18 22:29:00,22.1,-8.3,30.24,SW,224,0.0,0.0,25,0.00,,---,0.00,VWS V12.07,2013-01-19 03:29:00,
2013-01-18 22:35:00,22.1,-8.3,30.24,WSW,245,0.0,4.0,25,0.00,,---,0.00,VWS V12.07,2013-01-19 03:35:00,
2013-01-18 22:41:00,22.1,-8.3,30.24,West,272,2.2,4.9,25,0.00,,---,0.00,VWS V12.07,2013-01-19 03:41:00,
2013-01-18 22:47:00,22.1,-8.3,30.24,West,262,2.2,3.1,25,0.00,,---,0.00,VWS V12.07,2013-01-19 03:47:00,
2013-01-18 22:55:00,22.1,-8.3,30.24,SW,231,2.7,4.0,25,0.00,,---,0.00,VWS V12.07,2013-01-19 03:55:00,
2013-01-18 23:01:00,22.1,-8.3,30.24,SW,231,0.0,0.0,25,0.00,,---,0.00,VWS V12.07,2013-01-19 04:01:00,
2013-01-18 23:08:00,22.1,-8.3,30.24,SW,231,0.0,3.1,25,0.00,,---,0.00,VWS V12.07,2013-01-19 04:08:00,
2013-01-18 23:14:00,22.3,-8.2,30.24,SW,232,0.0,0.0,25,0.00,,---,0.00,VWS V12.07,2013-01-19 04:14:00,
2013-01-18 23:22:00,22.8,-7.7,30.21,SW,232,0.0,0.0,25,0.00,,---,0.00,VWS V12.07,2013-01-19 04:22:00,
2013-01-18 23:28:00,23.0,-7.6,30.21,SW,231,0.0,2.2,25,0.00,,---,0.00,VWS V12.07,2013-01-19 04:28:00,
2013-01-18 23:35:00,23.2,-8.2,30.21,SW,231,0.0,4.9,24,0.00,,---,0.00,VWS V12.07,2013-01-19 04:35:00,
2013-01-18 23:41:00,23.5,-7.9,30.21,SW,231,0.0,4.9,24,0.00,,---,0.00,VWS V12.07,2013-01-19 04:41:00,
2013-01-18 23:47:00,23.7,-7.8,30.21,West,262,4.5,4.5,24,0.00,,---,0.00,VWS V12.07,2013-01-19 04:47:00,
2013-01-18 23:56:00,23.9,-7.6,30.21,WSW,240,2.7,4.9,24,0.00,,---,0.00,VWS V12.07,2013-01-19 04:56:00,